FW6943 Weather Reports


time (UTC)temp
C
wind
direction
speed
KPH
gust
KPH
rain 1hr
cm
rain 24hr
cm
rain mn
cm
humidity
%
barometer
mb
20260504024556 12 315 0.0 1.6 0.00 0.00 0.00 46 975.0
20260504023047 13 315 0.0 3.2 0.00 0.00 0.00 43 974.9
20260504021551 13 315 0.0 0.0 0.00 0.00 0.00 39 974.8
20260504020048 15 315 0.0 0.0 0.00 0.00 0.00 37 974.6
20260504014543 16 315 0.0 0.0 0.00 0.00 0.00 34 974.4
20260504013048 17 315 0.0 1.6 0.00 0.00 0.00 30 974.3
20260504011542 18 315 0.0 0.0 0.00 0.00 0.00 27 974.3
20260504010038 19 315 0.0 3.2 0.00 0.00 0.00 24 974.3
20260504004546 20 315 0.0 4.8 0.00 0.00 0.00 22 974.3
20260504003037 20 342 1.6 8.0 0.00 0.00 0.00 22 974.4
20260504001537 20 287 4.8 12.9 0.00 0.00 0.00 20 974.2
20260504000005 21 338 6.4 19.3 0.00 0.00 0.00 20 974.3
20260503234505 21 52 3.2 12.9 0.00 0.00 0.00 20 974.2
20260503233003 21 257 1.6 4.8 0.00 0.00 0.00 19 974.1
20260503231503 21 65 8.0 22.5 0.00 0.00 0.00 18 974.1
20260503230003 22 312 8.0 20.9 0.00 0.00 0.00 17 973.9
20260503224502 22 355 4.8 14.5 0.00 0.00 0.00 19 973.8
20260503223101 22 290 6.4 16.1 0.00 0.00 0.00 19 973.7
20260503221600 22 338 3.2 19.3 0.00 0.00 0.00 18 973.7
20260503214606 22 290 9.7 19.3 0.00 0.00 0.00 22 973.9
20260503213054 22 313 11.3 20.9 0.00 0.00 0.00 21 974.0
20260503211603 22 300 9.7 24.1 0.00 0.00 0.00 22 974.0
20260503210050 22 34 6.4 16.1 0.00 0.00 0.00 25 974.0
20260503204549 22 289 6.4 19.3 0.00 0.00 0.00 24 974.3
20260503203044 22 12 4.8 17.7 0.00 0.00 0.00 29 974.3
20260503201543 22 291 6.4 16.1 0.00 0.00 0.00 25 974.4
20260503200040 21 269 8.0 16.1 0.00 0.00 0.00 25 974.6
20260503194543 21 294 8.0 17.7 0.00 0.00 0.00 28 974.7
20260503193020 21 298 6.4 17.7 0.00 0.00 0.00 30 974.9
20260503191505 21 247 6.4 16.1 0.00 0.00 0.00 27 975.2
20260503190040 21 267 6.4 19.3 0.00 0.00 0.00 26 975.2
20260503184528 20 288 6.4 14.5 0.00 0.00 0.00 30 975.3
20260503183058 20 271 11.3 19.3 0.00 0.00 0.00 28 975.5
20260503181602 20 360 6.4 16.1 0.00 0.00 0.00 28 975.7
20260503180050 20 275 6.4 16.1 0.00 0.00 0.00 29 975.8
20260503174603 19 313 4.8 24.1 0.00 0.00 0.00 29 975.8
20260503173047 18 255 9.7 22.5 0.00 0.00 0.00 30 976.1
20260503171543 17 193 6.4 22.5 0.00 0.00 0.00 32 976.2
20260503081601 7 217 1.6 4.8 0.00 0.00 0.00 51 980.3
20260503071542 4 222 0.0 0.0 0.00 0.00 0.00 62 980.6
20260503054530 4 222 0.0 0.0 0.00 0.00 0.00 62 981.3
20260503053020 5 222 0.0 0.0 0.00 0.00 0.00 61 981.4
20260503051519 5 222 0.0 0.0 0.00 0.00 0.00 61 981.6
20260503050018 5 222 0.0 3.2 0.00 0.00 0.00 61 981.6
20260503044515 5 222 0.0 1.6 0.00 0.00 0.00 60 981.6
20260503043012 5 222 0.0 0.0 0.00 0.00 0.00 59 981.8
20260503041511 6 222 0.0 0.0 0.00 0.00 0.00 57 982.0
20260503040008 6 222 0.0 0.0 0.00 0.00 0.00 54 982.1
20260503034505 6 222 0.0 0.0 0.00 0.00 0.00 53 982.3
20260503033003 7 222 0.0 0.0 0.00 0.00 0.00 51 982.4
20260503031502 7 222 0.0 0.0 0.00 0.00 0.00 48 982.5
20260503030002 7 222 0.0 0.0 0.00 0.00 0.00 46 982.7